Dauntless Aviation
Airports Europe Croatia
LDSP
SPU

Split

Split, CROATIA

Airport Info
Suggest Updated Information for this Airport

Location

Latitude / Longitude: 43°32'20"N / 16°17'52"E
  43°32.334'N / 16°17.88'E
  43.5389 / 16.2980

Nearby radio navigation aids

DVN DRVENIK NDB. 48.4° 8.7nm from DVN to field.
SPL SPLIT VOR/DME. 351.2° 2.6nm from SPL to field.
TRI TROGIR NDB. 50.4° 4.2nm from TRI to field.

Runway Information

Runway 05 /23

Dimensions: 8366 x 148 ft.
Surface: ASP
 
Runway 05
Runway 23
Latitude: 43.532053 43.545181
Longitude: 16.285583 16.309194
Elevation: 70 ft. 70 ft.
Runway true heading: 53.2 233.2
 

Instrument Procedures

  Aerodrome Chart
  Aircraft Parking/Docking Chart

STARs (Standard Terminal Arrivals)

  STAR - Instrument (STAR) - Rwy 05
  STAR - Instrument (STAR) - Rwy 23

IAPs (Instrument Approach Procedures)

  ATC Surveillance Minimum Altitude Chart
  ILSy or LOCy Rwy 05
  ILSz or LOCz Rwy 05
  ILS Rwy 05
  NDB Rwy 05
  VOR-B Rwy 23
  Visual Approach Chart
  Visual Operation Chart
  Bird Concentrations
  Aerodrome Obstacle Chart - Type A - Rwy 05
  Aerodrome Obstacle Chart - Type A - Rwy 23
  Aerodrome Information (Textual)

Departure Procedures

  SID - Instrument (SID) - Rwy 05
  SID - Instrument (SID) - Rwy 23
Satellite photo at:
Airport distance calculator
From:
Weather Reports

METAR

LDSP

LDSP 092300Z 32006KT CAVOK 08/05 Q1029

TAF

LDSP
TAF LDSP 091725Z 0918/1018 33008KT CAVOK TX14/1013Z TN02/1005Z PROB30 TEMPO 1000/1006 4000 MIFG BR
LDSB
22.8nm E
TAF LDSB 091125Z 0912/1012 32008KT CAVOK TX11/0913Z TN04/1005Z TEMPO 0912/0916 28012KT
Safelog

 

Dauntless Aviation

© 2007-2016 Dauntless Aviation, all rights reserved
Information provided via PilotNav comes from a variety of official and unofficial data sources. As errors are possible, do not use PilotNav for primary flight planning purposes. Verify any information that you receive via PilotNav with current and canonical charts and other official documents. The material in this database is subject to database copyrights held by Dauntless Aviation and may not be copied without the express permission of Dauntless Aviation - licenses for use of part of all of this data are available for purchase; enquire via the Dauntless Aviation helpdesk. A number of mechanisms and markers exist in the database to protect against and identify infringement / copyright. Automated queries against this website are stictly prohibited, and all activity is logged and analyzed.